Time,TemperatureF,DewpointF,PressureIn,WindDirection,WindDirectionDegrees,WindSpeedMPH,WindSpeedGustMPH,Humidity,HourlyPrecipIn,Conditions,Clouds,dailyrainin,SoftwareType,DateUTC
2013-03-16 00:02:00,42.0,40.0,-100.00,SW,220,4.0,6.0,92,0.55,,,-99.99,,2013-03-16 04:02:00,
2013-03-16 00:13:00,42.0,40.0,-100.00,SW,225,6.0,9.0,92,1.69,,,-99.99,,2013-03-16 04:13:00,
2013-03-16 00:23:00,42.0,40.0,-100.00,SW,220,6.0,9.0,93,0.55,,,-99.99,,2013-03-16 04:23:00,
2013-03-16 00:33:00,42.0,40.0,-100.00,SSW,205,6.0,9.0,93,0.55,,,-99.99,,2013-03-16 04:33:00,
2013-03-16 00:43:00,42.0,40.0,-100.00,SSW,210,6.0,7.0,94,0.00,,,-99.99,,2013-03-16 04:43:00,
2013-03-16 00:52:00,42.0,40.0,-100.00,South,190,4.0,7.0,94,0.00,,,-99.99,,2013-03-16 04:52:00,
2013-03-16 01:02:00,42.0,40.0,-100.00,South,170,3.0,5.0,94,0.55,,,-99.99,,2013-03-16 05:02:00,
2013-03-16 01:12:00,42.0,40.0,-100.00,South,175,1.0,4.0,94,0.55,,,-99.99,,2013-03-16 05:12:00,
2013-03-16 01:22:00,42.0,40.0,-100.00,South,185,0.0,2.0,94,0.00,,,-99.99,,2013-03-16 05:22:00,
2013-03-16 01:32:00,42.0,40.0,-100.00,South,190,1.0,1.0,95,0.00,,,-99.99,,2013-03-16 05:32:00,
2013-03-16 01:42:00,42.0,40.0,-100.00,South,185,0.0,1.0,95,0.00,,,-99.99,,2013-03-16 05:42:00,
2013-03-16 01:52:00,42.0,40.0,-100.00,SSW,205,0.0,1.0,95,1.10,,,-99.99,,2013-03-16 05:52:00,
2013-03-16 02:02:00,42.0,40.0,-100.00,SE,130,1.0,2.0,96,0.00,,,-99.99,,2013-03-16 06:02:00,
2013-03-16 02:12:00,41.0,40.0,-100.00,ESE,115,1.0,1.0,96,0.00,,,-99.99,,2013-03-16 06:12:00,
2013-03-16 02:22:00,41.0,40.0,-100.00,East,95,2.0,3.0,96,0.55,,,-99.99,,2013-03-16 06:22:00,
2013-03-16 02:32:00,42.0,40.0,-100.00,SE,140,1.0,4.0,96,0.55,,,-99.99,,2013-03-16 06:32:00,
2013-03-16 02:42:00,42.0,41.0,-100.00,SE,140,2.0,4.0,96,0.00,,,-99.99,,2013-03-16 06:42:00,
2013-03-16 02:52:00,41.0,40.0,-100.00,ESE,115,4.0,5.0,96,0.00,,,-99.99,,2013-03-16 06:52:00,
2013-03-16 03:02:00,41.0,40.0,-100.00,East,80,3.0,6.0,96,0.00,,,-99.99,,2013-03-16 07:02:00,
2013-03-16 03:12:00,41.0,40.0,-100.00,ENE,70,6.0,6.0,96,0.00,,,-99.99,,2013-03-16 07:12:00,
2013-03-16 03:22:00,42.0,41.0,-100.00,ENE,65,2.0,4.0,96,1.10,,,-99.99,,2013-03-16 07:22:00,
2013-03-16 03:32:00,42.0,41.0,-100.00,SSW,200,1.0,7.0,96,0.55,,,-99.99,,2013-03-16 07:32:00,
2013-03-16 03:42:00,42.0,41.0,-100.00,SSE,160,2.0,6.0,96,0.00,,,-99.99,,2013-03-16 07:42:00,
2013-03-16 03:52:00,41.0,40.0,-100.00,South,180,3.0,4.0,96,0.00,,,-99.99,,2013-03-16 07:52:00,
2013-03-16 04:03:00,42.0,41.0,-100.00,SE,130,2.0,6.0,96,0.00,,,-99.99,,2013-03-16 08:03:00,
2013-03-16 04:12:00,42.0,41.0,-100.00,SE,140,2.0,5.0,96,0.00,,,-99.99,,2013-03-16 08:12:00,
2013-03-16 04:23:00,42.0,41.0,-100.00,South,185,2.0,4.0,96,0.00,,,-99.99,,2013-03-16 08:23:00,
2013-03-16 04:32:00,42.0,41.0,-100.00,SE,130,1.0,4.0,95,0.00,,,-99.99,,2013-03-16 08:32:00,
2013-03-16 04:42:00,42.0,41.0,-100.00,South,190,0.0,2.0,95,2.83,,,-99.99,,2013-03-16 08:42:00,
2013-03-16 04:52:00,42.0,41.0,-100.00,SE,135,0.0,2.0,95,0.55,,,-99.99,,2013-03-16 08:52:00,
2013-03-16 05:02:00,42.0,41.0,-100.00,ESE,115,2.0,4.0,95,0.00,,,-99.99,,2013-03-16 09:02:00,
2013-03-16 05:12:00,42.0,41.0,-100.00,SE,130,2.0,5.0,95,0.00,,,-99.99,,2013-03-16 09:12:00,
2013-03-16 05:22:00,42.0,41.0,-100.00,SE,125,1.0,4.0,95,0.00,,,-99.99,,2013-03-16 09:22:00,
2013-03-16 05:33:00,42.0,41.0,-100.00,ESE,105,2.0,4.0,95,0.00,,,-99.99,,2013-03-16 09:33:00,
2013-03-16 05:42:00,42.0,41.0,-100.00,SE,140,2.0,4.0,95,0.00,,,-99.99,,2013-03-16 09:42:00,
2013-03-16 05:52:00,42.0,41.0,-100.00,SE,135,2.0,4.0,95,0.00,,,-99.99,,2013-03-16 09:52:00,
2013-03-16 06:03:00,42.0,41.0,-100.00,South,175,0.0,3.0,95,0.00,,,-99.99,,2013-03-16 10:03:00,
2013-03-16 06:12:00,42.0,41.0,-100.00,SE,125,0.0,3.0,94,0.00,,,-99.99,,2013-03-16 10:12:00,
2013-03-16 06:23:00,43.0,41.0,-100.00,SSE,155,3.0,7.0,94,0.00,,,-99.99,,2013-03-16 10:23:00,
2013-03-16 06:32:00,43.0,41.0,-100.00,SSE,160,2.0,4.0,94,0.00,,,-99.99,,2013-03-16 10:32:00,
2013-03-16 06:42:00,43.0,41.0,-100.00,WNW,290,1.0,8.0,94,0.00,,,-99.99,,2013-03-16 10:42:00,
2013-03-16 06:52:00,43.0,41.0,-100.00,East,80,2.0,3.0,93,0.00,,,-99.99,,2013-03-16 10:52:00,
2013-03-16 07:03:00,43.0,41.0,-100.00,ESE,120,1.0,6.0,92,0.00,,,-99.99,,2013-03-16 11:03:00,
2013-03-16 07:12:00,44.0,41.0,-100.00,SE,140,1.0,5.0,92,0.00,,,-99.99,,2013-03-16 11:12:00,
2013-03-16 07:22:00,44.0,41.0,-100.00,ESE,120,1.0,3.0,92,0.00,,,-99.99,,2013-03-16 11:22:00,
2013-03-16 07:32:00,44.0,41.0,-100.00,ESE,115,1.0,2.0,92,0.00,,,-99.99,,2013-03-16 11:32:00,
2013-03-16 07:43:00,43.0,41.0,-100.00,East,85,1.0,2.0,92,0.00,,,-99.99,,2013-03-16 11:43:00,
2013-03-16 07:52:00,43.0,41.0,-100.00,ESE,110,1.0,3.0,93,0.00,,,-99.99,,2013-03-16 11:52:00,
2013-03-16 08:02:00,43.0,41.0,-100.00,SE,125,2.0,3.0,93,0.00,,,-99.99,,2013-03-16 12:02:00,
2013-03-16 08:12:00,43.0,41.0,-100.00,SE,145,1.0,5.0,93,0.00,,,-99.99,,2013-03-16 12:12:00,
2013-03-16 08:22:00,43.0,41.0,-100.00,SE,135,2.0,5.0,92,0.00,,,-99.99,,2013-03-16 12:22:00,
2013-03-16 08:32:00,44.0,41.0,-100.00,SE,135,1.0,5.0,92,0.00,,,-99.99,,2013-03-16 12:32:00,
2013-03-16 08:42:00,44.0,41.0,-100.00,SE,125,1.0,3.0,91,0.00,,,-99.99,,2013-03-16 12:42:00,
2013-03-16 08:52:00,44.0,42.0,-100.00,SE,125,2.0,5.0,92,0.00,,,-99.99,,2013-03-16 12:52:00,
2013-03-16 09:02:00,44.0,42.0,-100.00,South,175,1.0,4.0,92,0.00,,,-99.99,,2013-03-16 13:02:00,
2013-03-16 09:12:00,44.0,42.0,-100.00,SE,135,3.0,6.0,91,0.00,,,-99.99,,2013-03-16 13:12:00,
2013-03-16 09:22:00,44.0,42.0,-100.00,South,170,4.0,7.0,91,0.00,,,-99.99,,2013-03-16 13:22:00,
2013-03-16 09:32:00,45.0,42.0,-100.00,South,170,4.0,9.0,91,0.00,,,-99.99,,2013-03-16 13:32:00,
2013-03-16 09:42:00,45.0,43.0,-100.00,South,175,6.0,11.0,90,0.00,,,-99.99,,2013-03-16 13:42:00,
2013-03-16 09:52:00,46.0,43.0,-100.00,South,180,6.0,11.0,89,0.00,,,-99.99,,2013-03-16 13:52:00,
2013-03-16 10:03:00,46.0,43.0,-100.00,South,170,7.0,12.0,87,0.00,,,-99.99,,2013-03-16 14:03:00,
2013-03-16 10:12:00,47.0,43.0,-100.00,SSW,200,6.0,11.0,87,0.00,,,-99.99,,2013-03-16 14:12:00,
2013-03-16 10:22:00,48.0,44.0,-100.00,SW,225,3.0,7.0,86,0.00,,,-99.99,,2013-03-16 14:22:00,
2013-03-16 10:32:00,48.0,44.0,-100.00,SW,215,6.0,7.0,84,0.00,,,-99.99,,2013-03-16 14:32:00,
2013-03-16 10:42:00,49.0,45.0,-100.00,SW,215,5.0,9.0,85,0.00,,,-99.99,,2013-03-16 14:42:00,
2013-03-16 10:52:00,49.0,45.0,-100.00,SW,215,4.0,6.0,84,0.00,,,-99.99,,2013-03-16 14:52:00,
2013-03-16 11:03:00,50.0,45.0,-100.00,WSW,245,4.0,6.0,84,0.00,,,-99.99,,2013-03-16 15:03:00,
2013-03-16 11:12:00,50.0,45.0,-100.00,SW,215,7.0,10.0,82,0.00,,,-99.99,,2013-03-16 15:12:00,
2013-03-16 11:22:00,51.0,46.0,-100.00,WSW,255,6.0,10.0,83,0.00,,,-99.99,,2013-03-16 15:22:00,
2013-03-16 11:33:00,53.0,47.0,-100.00,West,260,10.0,13.0,81,0.00,,,-99.99,,2013-03-16 15:33:00,
2013-03-16 11:43:00,53.0,47.0,-100.00,West,275,9.0,16.0,81,0.00,,,-99.99,,2013-03-16 15:43:00,
2013-03-16 11:53:00,53.0,47.0,-100.00,West,275,16.0,20.0,80,0.00,,,-99.99,,2013-03-16 15:53:00,
2013-03-16 12:03:00,53.0,47.0,-100.00,West,260,12.0,21.0,81,0.00,,,-99.99,,2013-03-16 16:03:00,
2013-03-16 12:12:00,53.0,47.0,-100.00,WSW,240,12.0,18.0,80,0.00,,,-99.99,,2013-03-16 16:12:00,
2013-03-16 12:23:00,53.0,47.0,-100.00,West,275,13.0,18.0,81,0.00,,,-99.99,,2013-03-16 16:23:00,
2013-03-16 12:33:00,53.0,47.0,-100.00,West,280,12.0,17.0,79,0.00,,,-99.99,,2013-03-16 16:33:00,
2013-03-16 12:42:00,53.0,47.0,-100.00,WSW,245,11.0,19.0,77,0.00,,,-99.99,,2013-03-16 16:42:00,
2013-03-16 12:53:00,53.0,46.0,-100.00,West,270,12.0,17.0,77,0.00,,,-99.99,,2013-03-16 16:53:00,
2013-03-16 13:03:00,53.0,46.0,-100.00,WNW,290,12.0,17.0,76,0.00,,,-99.99,,2013-03-16 17:03:00,
2013-03-16 13:13:00,53.0,46.0,-100.00,WNW,285,9.0,17.0,77,0.00,,,-99.99,,2013-03-16 17:13:00,
2013-03-16 13:23:00,53.0,46.0,-100.00,West,270,14.0,17.0,77,0.00,,,-99.99,,2013-03-16 17:23:00,
2013-03-16 13:33:00,52.0,46.0,-100.00,WNW,285,11.0,16.0,77,0.00,,,-99.99,,2013-03-16 17:33:00,
2013-03-16 13:42:00,53.0,46.0,-100.00,West,265,9.0,19.0,78,0.00,,,-99.99,,2013-03-16 17:42:00,
2013-03-16 13:52:00,53.0,46.0,-100.00,West,270,8.0,16.0,77,0.00,,,-99.99,,2013-03-16 17:52:00,
2013-03-16 14:02:00,53.0,46.0,-100.00,WNW,285,12.0,17.0,76,0.00,,,-99.99,,2013-03-16 18:02:00,
2013-03-16 14:13:00,53.0,46.0,-100.00,West,280,11.0,16.0,77,0.00,,,-99.99,,2013-03-16 18:13:00,
2013-03-16 14:23:00,53.0,45.0,-100.00,WNW,295,8.0,19.0,75,0.00,,,-99.99,,2013-03-16 18:23:00,
2013-03-16 14:33:00,51.0,44.0,-100.00,West,275,10.0,22.0,75,0.00,,,-99.99,,2013-03-16 18:33:00,
2013-03-16 14:43:00,51.0,43.0,-100.00,West,280,9.0,19.0,74,0.00,,,-99.99,,2013-03-16 18:43:00,
2013-03-16 14:52:00,50.0,43.0,-100.00,West,280,10.0,19.0,76,0.00,,,-99.99,,2013-03-16 18:52:00,
2013-03-16 15:02:00,50.0,43.0,-100.00,West,275,10.0,16.0,76,0.00,,,-99.99,,2013-03-16 19:02:00,
2013-03-16 15:12:00,50.0,43.0,-100.00,WNW,295,10.0,17.0,77,0.00,,,-99.99,,2013-03-16 19:12:00,
2013-03-16 15:22:00,49.0,43.0,-100.00,WNW,285,7.0,16.0,78,0.00,,,-99.99,,2013-03-16 19:22:00,
2013-03-16 15:32:00,49.0,42.0,-100.00,West,275,9.0,17.0,78,0.00,,,-99.99,,2013-03-16 19:32:00,
2013-03-16 15:42:00,49.0,42.0,-100.00,West,280,8.0,16.0,78,0.00,,,-99.99,,2013-03-16 19:42:00,
2013-03-16 15:52:00,48.0,42.0,-100.00,WNW,285,9.0,16.0,78,0.00,,,-99.99,,2013-03-16 19:52:00,
2013-03-16 16:02:00,48.0,42.0,-100.00,NW,315,7.0,13.0,78,0.00,,,-99.99,,2013-03-16 20:02:00,
2013-03-16 16:12:00,47.0,41.0,-100.00,NW,315,9.0,19.0,78,0.00,,,-99.99,,2013-03-16 20:12:00,
2013-03-16 16:22:00,47.0,41.0,-100.00,West,275,7.0,14.0,78,0.00,,,-99.99,,2013-03-16 20:22:00,
2013-03-16 16:33:00,46.0,40.0,-100.00,WNW,290,11.0,17.0,79,0.00,,,-99.99,,2013-03-16 20:33:00,
2013-03-16 16:42:00,46.0,40.0,-100.00,NW,305,8.0,17.0,81,0.00,,,-99.99,,2013-03-16 20:42:00,
2013-03-16 16:52:00,45.0,40.0,-100.00,WNW,290,7.0,14.0,82,0.00,,,-99.99,,2013-03-16 20:52:00,
2013-03-16 17:02:00,44.0,39.0,-100.00,WNW,295,9.0,15.0,84,0.00,,,-99.99,,2013-03-16 21:02:00,
2013-03-16 17:12:00,43.0,39.0,-100.00,West,280,12.0,19.0,86,0.00,,,-99.99,,2013-03-16 21:12:00,
2013-03-16 17:22:00,42.0,39.0,-100.00,NW,325,9.0,15.0,88,0.00,,,-99.99,,2013-03-16 21:22:00,
2013-03-16 17:33:00,41.0,37.0,-100.00,WNW,295,6.0,14.0,88,0.00,,,-99.99,,2013-03-16 21:33:00,
2013-03-16 17:43:00,40.0,37.0,-100.00,NW,315,9.0,17.0,88,0.00,,,-99.99,,2013-03-16 21:43:00,
2013-03-16 17:52:00,39.0,37.0,-100.00,NW,305,7.0,15.0,89,0.00,,,-99.99,,2013-03-16 21:52:00,
2013-03-16 18:03:00,39.0,37.0,-100.00,NW,325,5.0,13.0,90,0.00,,,-99.99,,2013-03-16 22:03:00,
2013-03-16 18:12:00,38.0,35.0,-100.00,NW,320,4.0,13.0,88,0.00,,,-99.99,,2013-03-16 22:12:00,
2013-03-16 18:23:00,38.0,35.0,-100.00,WNW,295,6.0,16.0,87,0.00,,,-99.99,,2013-03-16 22:23:00,
2013-03-16 18:33:00,38.0,35.0,-100.00,NW,315,6.0,13.0,86,0.00,,,-99.99,,2013-03-16 22:33:00,
2013-03-16 18:42:00,38.0,34.0,-100.00,NNW,330,6.0,12.0,86,0.00,,,-99.99,,2013-03-16 22:42:00,
2013-03-16 18:52:00,38.0,33.0,-100.00,NW,320,7.0,14.0,85,0.00,,,-99.99,,2013-03-16 22:52:00,
2013-03-16 19:02:00,37.0,33.0,-100.00,NNW,330,9.0,14.0,83,0.00,,,-99.99,,2013-03-16 23:02:00,
2013-03-16 19:13:00,37.0,32.0,-100.00,NW,315,7.0,11.0,83,0.00,,,-99.99,,2013-03-16 23:13:00,
2013-03-16 19:22:00,37.0,32.0,-100.00,WNW,300,8.0,14.0,84,0.00,,,-99.99,,2013-03-16 23:22:00,
2013-03-16 19:33:00,36.0,32.0,-100.00,NW,320,6.0,13.0,84,0.00,,,-99.99,,2013-03-16 23:33:00,
2013-03-16 19:42:00,36.0,32.0,-100.00,NW,320,4.0,12.0,84,0.00,,,-99.99,,2013-03-16 23:42:00,
2013-03-16 19:52:00,36.0,31.0,-100.00,WNW,295,7.0,13.0,83,0.00,,,-99.99,,2013-03-16 23:52:00,
2013-03-16 20:02:00,36.0,31.0,-100.00,WNW,295,4.0,11.0,84,0.00,,,-99.99,,2013-03-17 00:02:00,
2013-03-16 20:12:00,36.0,31.0,-100.00,NNW,330,6.0,10.0,84,0.00,,,-99.99,,2013-03-17 00:12:00,
2013-03-16 20:22:00,35.0,31.0,-100.00,NW,320,7.0,12.0,82,0.00,,,-99.99,,2013-03-17 00:22:00,
2013-03-16 20:33:00,35.0,30.0,-100.00,NW,310,4.0,11.0,82,0.00,,,-99.99,,2013-03-17 00:33:00,
2013-03-16 20:42:00,35.0,30.0,-100.00,NNW,340,6.0,12.0,82,0.00,,,-99.99,,2013-03-17 00:42:00,
2013-03-16 20:52:00,35.0,30.0,-100.00,NNW,330,6.0,9.0,82,0.00,,,-99.99,,2013-03-17 00:52:00,
2013-03-16 21:02:00,35.0,30.0,-100.00,NNW,330,6.0,11.0,82,0.00,,,-99.99,,2013-03-17 01:02:00,
2013-03-16 21:12:00,35.0,30.0,-100.00,NNW,330,5.0,11.0,82,0.00,,,-99.99,,2013-03-17 01:12:00,
2013-03-16 21:22:00,35.0,30.0,-100.00,North,350,4.0,7.0,82,0.00,,,-99.99,,2013-03-17 01:22:00,
2013-03-16 21:32:00,34.0,29.0,-100.00,NW,315,7.0,11.0,82,0.00,,,-99.99,,2013-03-17 01:32:00,
2013-03-16 21:42:00,34.0,29.0,-100.00,NNW,335,6.0,11.0,82,0.00,,,-99.99,,2013-03-17 01:42:00,
2013-03-16 21:52:00,34.0,30.0,-100.00,NNE,15,6.0,9.0,82,0.00,,,-99.99,,2013-03-17 01:52:00,
2013-03-16 22:03:00,34.0,29.0,-100.00,NNE,15,7.0,11.0,81,0.00,,,-99.99,,2013-03-17 02:03:00,
2013-03-16 22:13:00,34.0,29.0,-100.00,NNE,25,6.0,11.0,82,0.00,,,-99.99,,2013-03-17 02:13:00,
2013-03-16 22:22:00,34.0,29.0,-100.00,NE,35,5.0,9.0,82,0.00,,,-99.99,,2013-03-17 02:22:00,
2013-03-16 22:33:00,34.0,29.0,-100.00,North,5,4.0,12.0,83,0.00,,,-99.99,,2013-03-17 02:33:00,
2013-03-16 22:43:00,33.0,29.0,-100.00,NNW,340,4.0,8.0,83,0.00,,,-99.99,,2013-03-17 02:43:00,
2013-03-16 22:52:00,34.0,29.0,-100.00,North,10,3.0,6.0,84,0.00,,,-99.99,,2013-03-17 02:52:00,
2013-03-16 23:03:00,34.0,29.0,-100.00,NNW,335,3.0,8.0,83,0.00,,,-99.99,,2013-03-17 03:03:00,
2013-03-16 23:12:00,33.0,29.0,-100.00,NNW,335,3.0,9.0,84,0.00,,,-99.99,,2013-03-17 03:12:00,
2013-03-16 23:22:00,33.0,29.0,-100.00,NW,310,6.0,7.0,84,0.00,,,-99.99,,2013-03-17 03:22:00,
2013-03-16 23:34:00,33.0,29.0,-100.00,NNW,335,2.0,7.0,85,0.00,,,-99.99,,2013-03-17 03:34:00,
2013-03-16 23:43:00,33.0,29.0,-100.00,NNW,345,4.0,6.0,84,0.00,,,-99.99,,2013-03-17 03:43:00,
2013-03-16 23:52:00,33.0,29.0,-100.00,NW,320,4.0,7.0,85,0.00,,,-99.99,,2013-03-17 03:52:00,